[[{"header":{"parameterUnit":"m.s-1","parameterCategory":1,"la1":30.2991,"la2":30.254,"lo1":-89.0895,"lo2":-89.0444,"dy":0.0017,"dx":0.0017,"nx":28,"ny":28,"refTime":"2024-04-26T21:00:00:Z","depth":0,"parameterNumber":2,"parameterNumberName":"U-component_of_WINDS"},"data":[0,0,0,0,0,0,0,0,0,0,0,0,0,0,0,0,0,0,0,0,0,0,0,0,0,0,0,0,0,0,0,0,0,0,0,0,0,0,0,0,0,0,0,0,0,0,0,0,0,0,0,0,0,0,0,0,0,0,-5.6582,-5.6583,0,-5.6681,-5.6682,-5.6683,-5.6653,-5.6651,-5.6648,-5.6646,-5.6745,-5.675,-5.6754,0,0,0,0,0,0,0,0,0,0,0,0,0,-5.6365,-5.6369,-5.6582,-5.6583,-5.6584,-5.6681,-5.6682,-5.6684,-5.6653,-5.665,-5.6648,-5.6646,-5.6744,-5.6749,-5.6755,0,0,0,0,0,0,0,0,0,0,0,0,0,-5.6461,-5.637,-5.6582,-5.6581,-5.6582,-5.6681,-5.6682,-5.6684,-5.6654,-5.665,-5.6647,-5.6644,-5.6742,-5.6749,-5.6756,-5.6861,0,0,-5.6777,-5.678,0,0,0,0,0,0,0,0,-5.6455,-5.6469,-5.658,-5.6581,-5.6582,-5.6651,-5.6642,-5.6743,-5.6654,-5.6626,-5.6646,-5.6643,-5.6716,-5.6725,-5.6751,-5.6865,-5.6869,-5.6777,-5.6781,-5.6784,-5.6786,0,0,0,0,0,0,0,-5.6449,-5.6464,-5.6621,-5.6581,-5.6583,-5.6575,-5.6585,-5.6661,-5.6688,-5.6628,-5.6626,-5.6639,-5.6717,-5.6744,-5.6753,-5.6871,-5.6777,-5.6783,-5.6787,-5.679,-5.7077,-5.708,0,0,0,0,0,0,-5.6442,-5.6459,-5.6618,-5.6624,-5.651,-5.6581,-5.6593,-5.6632,-5.6687,-5.6692,-5.6641,-5.6637,-5.6734,-5.6745,-5.6756,-5.6882,-5.6784,-5.6791,-5.6795,-5.7073,-5.7078,-5.7081,0,0,0,0,0,0,-5.6437,-5.6456,-5.6614,-5.6541,-5.6561,-5.6589,-5.6633,-5.6636,-5.6663,-5.6697,-5.6701,-5.6665,-5.6732,-5.6746,-5.6835,-5.6885,-5.6794,-5.68,-5.7069,-5.7075,-5.7079,-5.7134,0,0,0,0,0,0,-5.6431,-5.6455,-5.6495,-5.6542,-5.6565,-5.6692,-5.6636,-5.664,-5.6676,-5.6671,-5.6719,-5.6724,-5.6731,-5.6825,-5.6842,-5.6892,-5.6805,-5.7065,-5.7072,-5.7078,-5.7128,-5.7141,-5.7152,0,0,0,0,0,-5.6423,-5.6506,-5.6497,-5.6516,-5.6616,-5.6695,-5.6707,-5.6713,-5.668,-5.672,-5.6742,-5.6723,-5.6878,-5.6834,-5.6853,-5.6906,-5.7062,-5.707,-5.7077,-5.7123,-5.7138,-5.7151,0,0,0,0,0,0,-5.6462,-5.6512,-5.6503,-5.6603,-5.6645,-5.6689,-5.674,-5.6729,-5.6781,-5.6774,-5.6779,-5.679,-5.6881,-5.6903,-5.6854,-5.7011,-5.6964,-5.6976,-5.6993,-5.7008,-5.7019,-5.701,-5.6811,0,0,0,0,0,-5.6483,-5.6543,-5.6583,-5.6668,-5.669,-5.6712,-5.6746,-5.6748,-5.6791,-5.6808,-5.6836,-5.6878,-5.6936,-5.6973,-5.7029,-5.7133,-5.7142,-5.7179,-5.7191,-5.72,-5.7209,-5.7265,-5.7282,-5.7107,-5.7107,-5.7107,0,0,-5.6525,-5.656,-5.6597,-5.6677,-5.6709,-5.6771,-5.6727,-5.6794,-5.6839,-5.6818,-5.6902,-5.6925,-5.6972,-5.7069,-5.7113,-5.709,-5.726,-5.721,-5.7217,-5.7222,-5.7275,-5.7292,-5.7306,-5.7113,-5.7112,-5.7111,0,0,-5.6633,-5.6666,-5.674,-5.6774,-5.6825,-5.6839,-5.6857,-5.6904,-5.6918,-5.7004,-5.6989,-5.7044,-5.7144,-5.7178,-5.7208,-5.7332,-5.7316,-5.7351,-5.741,-5.7465,-5.7479,-5.7491,-5.7533,-5.7549,-5.736,-5.7361,-5.7361,0,-5.6678,-5.6771,-5.6779,-5.6848,-5.6883,-5.6869,-5.6943,-5.6976,-5.7041,-5.7066,-5.704,-5.7166,-5.7197,-5.7301,-5.7331,-5.7357,-5.7377,-5.7343,-5.7476,-5.7489,-5.75,-5.754,-5.7557,-5.7364,-5.7364,-5.7363,-5.7363,0,-5.6824,-5.6889,-5.6943,-5.7008,-5.7049,-5.7121,-5.7139,-5.718,-5.7179,-5.7196,-5.7284,-5.7321,-5.7384,-5.7409,-5.7408,-5.7514,-5.7498,-5.7475,-5.7427,-5.752,-5.7558,-5.7574,-5.7369,-5.7368,-5.7367,-5.7366,0,0,-5.6956,-5.7026,-5.7045,-5.7074,-5.713,-5.718,-5.7252,-5.7314,-5.7348,-5.7395,-5.7454,-5.754,-5.752,-5.7554,-5.7558,-5.7606,-5.77,-5.7577,-5.7578,-5.7596,-5.7817,-5.7832,-5.785,-5.7692,-5.7695,-5.7697,-5.7812,0,-5.7067,-5.7192,-5.7202,-5.7314,-5.7374,-5.7363,-5.7425,-5.7465,-5.7484,-5.7537,-5.7558,-5.7618,-5.7587,-5.7608,-5.7656,-5.7679,-5.7744,-5.7671,-5.7745,-5.7747,-5.773,-5.787,-5.7886,-5.7992,-5.7827,-5.783,-5.7832,0,-5.7212,-5.7264,-5.7382,-5.743,-5.7456,-5.7511,-5.7569,-5.7621,-5.7667,-5.7678,-5.7718,-5.7715,-5.7788,-5.7741,-5.7841,-5.7791,-5.7822,-5.7838,-5.7843,-5.7847,-5.7793,-5.7876,-5.8027,-5.8042,-5.7856,-5.7854,-5.7852,0,-5.7293,-5.7393,-5.7477,-5.7503,-5.7561,-5.76,-5.7627,-5.767,-5.7707,-5.7759,-5.7782,-5.7841,-5.7873,-5.7919,-5.7932,-5.7897,-5.8031,-5.7985,-5.804,-5.804,-5.8066,-5.8063,-5.8221,-5.8091,-5.8091,-5.8091,-5.809,0,-5.7414,-5.7486,-5.7514,-5.7565,-5.7646,-5.7658,-5.7738,-5.7762,-5.7801,-5.7856,-5.7851,-5.7903,-5.7919,-5.7973,-5.7985,-5.8065,-5.808,-5.8089,-5.8091,-5.8088,-5.8086,-5.8106,-5.8098,-5.8095,-5.8094,-5.8093,-5.8093,0,-5.7517,-5.7539,-5.7629,-5.7678,-5.7692,-5.7749,-5.7791,-5.784,-5.786,-5.793,-5.7947,-5.7977,-5.8041,-5.806,-5.8137,-5.8145,-5.8238,-5.8234,-5.8222,-5.8221,-5.8274,-5.8268,-5.8448,-5.8471,-5.8329,-5.833,-5.8331,0,-5.7591,-5.7646,-5.7702,-5.7739,-5.7767,-5.7827,-5.7865,-5.788,-5.792,-5.7978,-5.802,-5.8084,-5.8135,-5.8239,-5.8267,-5.8326,-5.8322,-5.8381,-5.8331,-5.8326,-5.832,-5.8316,-5.8321,-5.8389,-5.8391,-5.8392,-5.8393,0,-5.772,-5.7728,-5.7783,-5.7843,-5.7889,-5.7937,-5.7983,-5.8013,-5.8035,-5.808,-5.8146,-5.8186,-5.8266,-5.8329,-5.839,-5.8416,-5.8408,-5.841,-5.8425,-5.8421,-5.8411,-5.8415,-5.8245,-5.8404,-5.8403,-5.8402,-5.8402,-5.8401,-5.7809,-5.7857,-5.7904,-5.7966,-5.8003,-5.8046,-5.8095,-5.8121,-5.8177,-5.8243,-5.8249,-5.832,-5.8366,-5.8447,-5.8477,-5.8533,-5.8515,-5.8538,-5.8543,-5.8548,-5.8551,-5.8405,-5.8544,-5.8544,-5.8543,-5.8543,-5.8543,0,-5.7935,-5.7965,-5.8023,-5.8087,-5.8136,-5.8127,-5.8178,-5.8219,-5.8282,-5.8326,-5.8378,-5.8454,-5.8516,-5.855,-5.8611,-5.8649,-5.8647,-5.8665,-5.8661,-5.8667,-5.8564,-5.8544,-5.8666,-5.8666,-5.8665,-5.8665,-5.8665,-5.8665,-5.8006,-5.8088,-5.8102,-5.8202,-5.8232,-5.8302,-5.8332,-5.8372,-5.8407,-5.8493,-5.8544,-5.8567,-5.8607,-5.8672,-5.8728,-5.8736,-5.8758,-5.8778,-5.8784,-5.8687,-5.8674,-5.8662,-5.8642,-5.8783,-5.8783,-5.8881,-5.8882,-5.8883]},{"header":{"parameterUnit":"m.s-1","parameterCategory":1,"la1":30.2991,"la2":30.254,"lo1":-89.0895,"lo2":-89.0444,"dy":0.0017,"dx":0.0017,"nx":28,"ny":28,"refTime":"2024-04-26T21:00:00:Z","depth":0,"parameterNumber":3,"parameterNumberName":"V-component_of_WINDS"},"data":[0,0,0,0,0,0,0,0,0,0,0,0,0,0,0,0,0,0,0,0,0,0,0,0,0,0,0,0,0,0,0,0,0,0,0,0,0,0,0,0,0,0,0,0,0,0,0,0,0,0,0,0,0,0,0,0,0,0,4.6691,4.6691,0,4.6743,4.6744,4.6745,4.6725,4.6724,4.6723,4.6721,4.6771,4.6774,4.6776,0,0,0,0,0,0,0,0,0,0,0,0,0,4.657,4.6573,4.6691,4.6691,4.6692,4.6743,4.6744,4.6745,4.6725,4.6724,4.6722,4.6721,4.6771,4.6773,4.6776,0,0,0,0,0,0,0,0,0,0,0,0,0,4.6623,4.6573,4.669,4.6688,4.6689,4.6743,4.6744,4.6745,4.6726,4.6724,4.6722,4.672,4.677,4.6773,4.6777,4.6835,0,0,4.6788,4.6789,0,0,0,0,0,0,0,0,4.662,4.6627,4.6688,4.6689,4.6689,4.6726,4.672,4.6775,4.6726,4.6711,4.6721,4.6719,4.6757,4.6762,4.6776,4.6837,4.6839,4.6788,4.679,4.6792,4.6793,0,0,0,0,0,0,0,4.6616,4.6625,4.6711,4.6689,4.669,4.6684,4.669,4.673,4.6744,4.6713,4.6711,4.6718,4.6757,4.6772,4.6777,4.684,4.6788,4.6791,4.6794,4.6795,4.6954,4.6956,0,0,0,0,0,0,4.6613,4.6622,4.671,4.6713,4.665,4.6688,4.6694,4.6716,4.6743,4.6746,4.672,4.6717,4.6767,4.6772,4.6778,4.6849,4.6792,4.6795,4.6797,4.6952,4.6954,4.6957,0,0,0,0,0,0,4.661,4.6621,4.6707,4.6667,4.6678,4.6692,4.6717,4.6718,4.6733,4.6748,4.675,4.6732,4.6766,4.6773,4.6822,4.685,4.6797,4.68,4.695,4.6953,4.6955,4.6991,0,0,0,0,0,0,4.6607,4.662,4.6643,4.6668,4.668,4.6751,4.6718,4.672,4.6739,4.6737,4.6761,4.6763,4.6765,4.6816,4.6825,4.6855,4.6803,4.6947,4.6951,4.6954,4.6987,4.6994,4.7001,0,0,0,0,0,4.6603,4.6649,4.6644,4.6654,4.6709,4.6752,4.6759,4.6761,4.6742,4.6764,4.6775,4.6762,4.6846,4.6821,4.6831,4.6862,4.6945,4.695,4.6954,4.6984,4.6993,4.7001,0,0,0,0,0,0,4.6624,4.6652,4.6647,4.6703,4.6726,4.6749,4.6777,4.6771,4.6798,4.6794,4.6794,4.68,4.685,4.6861,4.6833,4.6921,4.6893,4.6899,4.6912,4.6921,4.6928,4.6923,4.6806,0,0,0,0,0,4.6636,4.667,4.6692,4.674,4.6752,4.6763,4.6782,4.6782,4.6805,4.6814,4.6828,4.685,4.6881,4.6902,4.6931,4.6989,4.6994,4.7015,4.7022,4.7028,4.7033,4.7066,4.7076,4.6972,4.6972,4.6971,0,0,4.666,4.6679,4.67,4.6745,4.6762,4.6797,4.6771,4.6808,4.6834,4.6819,4.6866,4.6878,4.6902,4.6956,4.698,4.6967,4.7064,4.7034,4.7038,4.7041,4.7072,4.7081,4.709,4.6975,4.6974,4.6974,0,0,4.6721,4.6739,4.6781,4.68,4.6829,4.6836,4.6847,4.6872,4.6879,4.6927,4.6917,4.6948,4.7001,4.702,4.7036,4.7108,4.7098,4.7118,4.7154,4.7185,4.7194,4.7201,4.7227,4.7236,4.7123,4.7123,4.7123,0,4.6746,4.6799,4.6803,4.6843,4.6863,4.6854,4.6896,4.6914,4.695,4.6963,4.6948,4.7017,4.7033,4.7091,4.7109,4.7123,4.7134,4.7114,4.7192,4.72,4.7206,4.7231,4.7241,4.7126,4.7125,4.7125,4.7125,0,4.6829,4.6867,4.6897,4.6935,4.6958,4.6999,4.7009,4.7032,4.7031,4.704,4.709,4.7109,4.7143,4.7157,4.7155,4.7216,4.7207,4.7192,4.7163,4.7219,4.7242,4.7251,4.7129,4.7128,4.7127,4.7127,0,0,4.6903,4.6945,4.6956,4.6973,4.7005,4.7034,4.7074,4.711,4.713,4.7156,4.719,4.7237,4.7225,4.7243,4.7244,4.7272,4.7328,4.7254,4.7254,4.7267,4.7397,4.7408,4.7418,4.7322,4.7324,4.7325,4.7395,0,4.6967,4.704,4.7046,4.7111,4.7146,4.7139,4.7175,4.7198,4.7209,4.7239,4.725,4.7284,4.7264,4.7276,4.7304,4.7315,4.7354,4.731,4.7353,4.7354,4.7346,4.743,4.7441,4.7506,4.7404,4.7405,4.7407,0,4.705,4.7081,4.7151,4.718,4.7195,4.7227,4.7261,4.729,4.7317,4.7322,4.7345,4.7342,4.7384,4.7355,4.7413,4.7383,4.7401,4.741,4.7413,4.7416,4.7383,4.7435,4.7526,4.7536,4.7421,4.742,4.7419,0,4.7097,4.7156,4.7206,4.7221,4.7256,4.7279,4.7294,4.7319,4.7341,4.7371,4.7385,4.7418,4.7436,4.7462,4.7468,4.7447,4.7526,4.7497,4.7531,4.7531,4.7547,4.7546,4.7642,4.756,4.756,4.7559,4.7559,0,4.7167,4.721,4.7228,4.7258,4.7307,4.7313,4.7361,4.7374,4.7397,4.743,4.7426,4.7456,4.7463,4.7495,4.75,4.7548,4.7556,4.7561,4.7562,4.7561,4.7561,4.7572,4.7568,4.7562,4.7561,4.7561,4.756,0,4.7227,4.7241,4.7295,4.7325,4.7334,4.7368,4.7393,4.7422,4.7433,4.7475,4.7485,4.7501,4.7539,4.7549,4.7593,4.7596,4.7652,4.7649,4.7644,4.7644,4.7677,4.7674,4.7783,4.7798,4.7707,4.7707,4.7708,0,4.7271,4.7304,4.7339,4.7362,4.7379,4.7415,4.7438,4.7446,4.747,4.7504,4.753,4.7567,4.7598,4.7658,4.7673,4.7708,4.7705,4.7741,4.771,4.7709,4.7705,4.7703,4.7707,4.7746,4.7747,4.7748,4.7749,0,4.7347,4.7353,4.7387,4.7424,4.7452,4.7481,4.7509,4.7527,4.754,4.7567,4.7607,4.763,4.7677,4.7715,4.775,4.7765,4.7759,4.7759,4.7769,4.7768,4.7764,4.7767,4.766,4.7756,4.7755,4.7755,4.7754,4.7754,4.74,4.743,4.746,4.7498,4.7521,4.7548,4.7577,4.7593,4.7627,4.7667,4.767,4.7713,4.774,4.7787,4.7804,4.7838,4.7826,4.784,4.7844,4.7847,4.785,4.7759,4.7844,4.7844,4.7844,4.7843,4.7843,0,4.7476,4.7496,4.7531,4.7572,4.7602,4.7597,4.7628,4.7653,4.7692,4.7719,4.775,4.7796,4.7833,4.7852,4.7889,4.7912,4.791,4.7921,4.7919,4.7923,4.7858,4.7846,4.7922,4.7922,4.7922,4.7922,4.7922,4.7922,4.7519,4.757,4.758,4.7642,4.7661,4.7705,4.7723,4.7748,4.7769,4.7822,4.7853,4.7867,4.7891,4.7929,4.7963,4.7968,4.7981,4.7994,4.7997,4.7935,4.7927,4.792,4.7908,4.7997,4.7997,4.806,4.806,4.8061]}]]